Location: Miles
(41.4492°N, 81.6087°W)
Time: 15:41:11
(UTC+00:00)

Vanguard 1 Rocket - Pass Details

Date: 13 September 2024
Orbit: 650 x 4218 km, 34.3° (Epoch: 07 October)

Event Time Altitude Azimuth Distance (km) Brightness Sun altitude
Rises 17:38:09 0° 284° (WNW) 8,450 12.3 51.8°
Reaches altitude 10° 17:47:03 10° 270° (W) 7,377 12.2 51.5°
Maximum altitude 18:01:02 19° 236° (SW) 6,068 12.4 51.0°
Drops below altitude 10° 18:12:34 10° 199° (SSW) 5,886 12.4 50.3°
Sets 18:18:31 0° 182° (S) 6,274 12.3 49.9°
